Flag for Germany Weather past 2 weeks in Potsdam, Brandenburg, Germany

Now
71 °F

Scattered clouds.


Feels Like: 77 °F
Forecast: 54 / 75 °F
Wind: 3 mph from Southeast

Location: Potsdam

Current Time: Sep 18, 2014 at 6:36:39 PM

Latest Report: Sep 18, 2014 at 6:00 PM


Visibility: 22 mi

Pressure: 29.94 "Hg

Humidity: 54%

Dew point: 54 °F

Location of PotsdamLocation

Historic Weather in Potsdam — Graph

°F

Potsdam temperature yesterday

Maximum temperature yesterday: 76 °F (at 3:00 PM)
Minimum temperature yesterday: 56 °F (at 7:00 AM)
Average temperature yesterday: 64 °F

Past Weeks' High & Low Weather Summary

 TemperatureHumidityPressure
High81 °F (Sep 6, 5:00 PM)99% (Sep 11, 1:00 AM)30.27 "Hg (Sep 11, 1:00 AM)
Low52 °F (Sep 9, 4:00 AM)43% (Sep 8, 3:00 PM)29.86 "Hg (Sep 6, 6:00 PM)
Average63 °F82%30.05 "Hg
* Reported Sep 3 5:00 PM — Sep 18 5:00 PM, Potsdam, Weather by CustomWeather, © 2014

Note: Actual official high and low records may vary slightly from our data, if they occured in-between our weather recording intervals... More about our weather records

Advertising

Potsdam weather history for previous 24 hours

 ConditionsComfort  
Time TempWeatherWind HumidityBarometerVisibility
5:00 PM
Sep 18
74 °FScattered clouds.3 mph48%29.94 "Hg22 mi
4:00 PM74 °FPassing clouds.6 mph48%29.93 "Hg19 mi
3:00 PM74 °FScattered clouds.6 mph50%29.94 "Hg19 mi
2:00 PM74 °FPassing clouds.5 mph52%29.95 "Hg19 mi
1:00 PM72 °FPassing clouds.5 mph56%29.95 "Hg19 mi
12:00 PM70 °FPassing clouds.6 mph59%29.97 "Hg19 mi
11:00 AM67 °FPassing clouds.5 mph67%29.98 "Hg19 mi
10:00 AM63 °FPassing clouds.5 mph76%29.99 "Hg14 mi
9:00 AM58 °FSunny.5 mph86%29.99 "Hg14 mi
8:00 AM55 °FSunny.6 mph92%29.98 "Hg12 mi
7:00 AM54 °FSunny.6 mph92%29.99 "Hg12 mi
6:00 AM55 °FPassing clouds.6 mph92%29.98 "Hg12 mi
5:00 AM56 °FClear.6 mph89%29.98 "Hg16 mi
4:00 AM57 °FPassing clouds.6 mph89%29.99 "Hg17 mi
3:00 AM58 °FClear.6 mph88%29.99 "Hg19 mi
2:00 AM59 °FPassing clouds.6 mph87%30.00 "Hg19 mi
1:00 AM60 °FPassing clouds.5 mph84%30.00 "Hg16 mi
12:00 AM61 °FClear.6 mph84%30.00 "Hg16 mi
11:00 PM
Sep 17
62 °FClear.5 mph83%30.01 "Hg19 mi
10:00 PM64 °FClear.5 mph80%30.01 "Hg19 mi
9:00 PM65 °FClear.5 mph78%30.01 "Hg19 mi
8:00 PM67 °FClear.5 mph75%30.00 "Hg17 mi
7:00 PM70 °FSunny.5 mph67%29.99 "Hg16 mi
6:00 PM72 °FPassing clouds.6 mph58%29.99 "Hg17 mi
Weather by CustomWeather, © 2014

See weather overviewHow to use our weather pages